Simultaneous Nadir Overpasses (SNOs) Predictions

Prediction of SNOs between GOES-16 and NOAA-21 Satellite Orbit:

Table of predicted SNOs for the next 14.0 days since TLE Epoch: 5/23/2025
Index Date Time (GOES-16) GOES-16 Lat,Lon NOAA-21 Lat,Lon Distance(km) Time Diff (sec)
1 05/25/2025 08:01:30 -0.01, -98.33 0.08, -98.77 49.52 80
2 05/27/2025 20:02:09 0.01, -99.67 0.05, -99.61 7.37 80
3 05/30/2025 08:05:19 -0.01,-100.97 -0.13,-100.42 62.76 80
4 05/31/2025 20:29:59 0.01,-101.79 -0.89,-105.77 452.86 80
5 06/01/2025 20:08:37 0.01,-102.32 0.26,-101.27 120.13 80
6 06/03/2025 08:33:09 -0.00,-103.11 0.79,-106.57 394.94 80
7 06/04/2025 08:11:47 -0.01,-103.64 -0.36,-102.07 178.08 80
8 06/05/2025 20:36:28 0.00,-104.46 -0.66,-107.42 337.06 80
